Time,TemperatureF,DewpointF,PressureIn,WindDirection,WindDirectionDegrees,WindSpeedMPH,WindSpeedGustMPH,Humidity,HourlyPrecipIn,Conditions,Clouds,dailyrainin,SoftwareType,DateUTC
2013-07-28 00:02:00,57.2,49.3,31.89,WSW,248,1.1,1.8,75,0.00,,,0.00,WUHU216HW,2013-07-28 06:02:00,
2013-07-28 00:07:00,57.2,49.7,31.89,WSW,248,1.3,1.8,76,0.00,,,0.00,WUHU216HW,2013-07-28 06:07:00,
2013-07-28 00:12:00,57.1,49.9,31.88,WSW,248,1.1,1.3,77,0.00,,,0.00,WUHU216HW,2013-07-28 06:12:00,
2013-07-28 00:17:00,56.9,49.7,31.88,WSW,248,1.1,1.3,77,0.00,,,0.00,WUHU216HW,2013-07-28 06:17:00,
2013-07-28 00:22:00,56.9,49.7,31.88,West,270,0.7,1.6,77,0.00,,,0.00,WUHU216HW,2013-07-28 06:22:00,
2013-07-28 00:27:00,56.9,49.7,31.88,West,270,0.4,1.6,77,0.00,,,0.00,WUHU216HW,2013-07-28 06:27:00,
2013-07-28 00:32:00,57.2,49.7,31.88,WSW,248,0.7,0.7,76,0.00,,,0.00,WUHU216HW,2013-07-28 06:32:00,
2013-07-28 00:37:00,57.2,49.7,31.88,WSW,248,0.4,0.7,76,0.00,,,0.00,WUHU216HW,2013-07-28 06:37:00,
2013-07-28 00:42:00,57.4,49.5,31.88,WSW,248,0.0,0.7,75,0.00,,,0.00,WUHU216HW,2013-07-28 06:42:00,
2013-07-28 00:47:00,57.2,49.3,31.88,West,270,0.0,0.7,75,0.00,,,0.00,WUHU216HW,2013-07-28 06:47:00,
2013-07-28 00:52:00,57.2,49.7,31.88,West,270,0.4,1.1,76,0.00,,,0.00,WUHU216HW,2013-07-28 06:52:00,
2013-07-28 00:57:00,57.2,49.7,31.87,West,270,1.1,1.1,76,0.00,,,0.00,WUHU216HW,2013-07-28 06:57:00,
2013-07-28 01:02:00,57.1,49.9,31.87,WSW,248,0.7,1.1,77,0.00,,,0.00,WUHU216HW,2013-07-28 07:02:00,
2013-07-28 01:07:00,56.9,50.0,31.87,WSW,248,0.4,0.7,78,0.00,,,0.00,WUHU216HW,2013-07-28 07:07:00,
2013-07-28 01:12:00,56.7,49.5,31.88,WSW,248,0.0,0.7,77,0.00,,,0.00,WUHU216HW,2013-07-28 07:12:00,
2013-07-28 01:17:00,56.5,49.3,31.88,WSW,248,0.7,0.7,77,0.00,,,0.00,WUHU216HW,2013-07-28 07:17:00,
2013-07-28 01:22:00,56.5,49.7,31.88,WSW,248,0.2,1.1,78,0.00,,,0.00,WUHU216HW,2013-07-28 07:22:00,
2013-07-28 01:27:00,56.5,49.7,31.87,WSW,248,0.4,1.1,78,0.00,,,0.00,WUHU216HW,2013-07-28 07:27:00,
2013-07-28 01:32:00,56.3,49.9,31.87,West,270,0.4,0.7,79,0.00,,,0.00,WUHU216HW,2013-07-28 07:32:00,
2013-07-28 01:37:00,56.5,50.0,31.87,SW,225,0.4,0.7,79,0.00,,,0.00,WUHU216HW,2013-07-28 07:37:00,
2013-07-28 01:42:00,56.5,50.0,31.87,West,270,0.0,0.7,79,0.00,,,0.00,WUHU216HW,2013-07-28 07:42:00,
2013-07-28 01:47:00,56.7,50.2,31.87,West,270,0.0,0.4,79,0.00,,,0.00,WUHU216HW,2013-07-28 07:47:00,
2013-07-28 01:52:00,56.7,50.2,31.87,West,270,0.4,0.9,79,0.00,,,0.00,WUHU216HW,2013-07-28 07:52:00,
2013-07-28 01:57:00,56.9,50.4,31.87,WNW,293,0.2,0.9,79,0.00,,,0.00,WUHU216HW,2013-07-28 07:57:00,
2013-07-28 02:02:00,56.9,50.4,31.87,WNW,293,0.7,1.1,79,0.00,,,0.00,WUHU216HW,2013-07-28 08:02:00,
2013-07-28 02:07:00,56.9,50.4,31.87,WNW,293,0.0,1.1,79,0.00,,,0.00,WUHU216HW,2013-07-28 08:07:00,
2013-07-28 02:12:00,56.9,49.7,31.87,WNW,293,0.0,0.7,77,0.00,,,0.00,WUHU216HW,2013-07-28 08:12:00,
2013-07-28 02:17:00,56.5,49.3,31.87,WNW,293,0.0,0.0,77,0.00,,,0.00,WUHU216HW,2013-07-28 08:17:00,
2013-07-28 02:22:00,56.3,49.1,31.87,WNW,293,0.0,0.0,77,0.00,,,0.00,WUHU216HW,2013-07-28 08:22:00,
2013-07-28 02:27:00,56.0,49.1,31.86,WNW,293,0.0,0.0,78,0.00,,,0.00,WUHU216HW,2013-07-28 08:27:00,
2013-07-28 02:32:00,55.6,49.1,31.86,West,270,0.0,0.0,79,0.00,,,0.00,WUHU216HW,2013-07-28 08:32:00,
2013-07-28 02:37:00,55.4,48.6,31.86,WSW,248,1.1,1.3,78,0.00,,,0.00,WUHU216HW,2013-07-28 08:37:00,
2013-07-28 02:42:00,55.3,48.5,31.86,WSW,248,1.6,1.6,78,0.00,,,0.00,WUHU216HW,2013-07-28 08:42:00,
2013-07-28 02:47:00,55.1,48.7,31.86,WSW,248,1.3,1.6,79,0.00,,,0.00,WUHU216HW,2013-07-28 08:47:00,
2013-07-28 02:52:00,54.9,48.5,31.86,WSW,248,1.6,1.6,79,0.00,,,0.00,WUHU216HW,2013-07-28 08:52:00,
2013-07-28 02:57:00,54.9,48.9,31.86,SW,225,1.1,1.8,80,0.00,,,0.00,WUHU216HW,2013-07-28 08:57:00,
2013-07-28 03:02:00,54.7,48.7,31.85,SW,225,0.7,1.8,80,0.00,,,0.00,WUHU216HW,2013-07-28 09:02:00,
2013-07-28 03:07:00,54.9,48.2,31.85,SW,225,0.0,1.1,78,0.00,,,0.00,WUHU216HW,2013-07-28 09:07:00,
2013-07-28 03:12:00,54.9,48.2,31.85,SW,225,0.0,0.7,78,0.00,,,0.00,WUHU216HW,2013-07-28 09:12:00,
2013-07-28 03:17:00,54.7,48.0,31.85,SW,225,0.0,0.0,78,0.00,,,0.00,WUHU216HW,2013-07-28 09:17:00,
2013-07-28 03:22:00,54.7,48.3,31.85,SW,225,0.7,0.7,79,0.00,,,0.00,WUHU216HW,2013-07-28 09:22:00,
2013-07-28 03:27:00,54.5,48.5,31.85,SW,225,0.7,0.7,80,0.00,,,0.00,WUHU216HW,2013-07-28 09:27:00,
2013-07-28 03:32:00,54.5,48.5,31.85,SW,225,0.4,0.7,80,0.00,,,0.00,WUHU216HW,2013-07-28 09:32:00,
2013-07-28 03:37:00,54.7,48.7,31.85,SW,225,0.0,0.7,80,0.00,,,0.00,WUHU216HW,2013-07-28 09:37:00,
2013-07-28 03:42:00,55.1,49.0,31.85,SW,225,0.0,0.4,80,0.00,,,0.00,WUHU216HW,2013-07-28 09:42:00,
2013-07-28 03:47:00,55.1,49.0,31.85,SW,225,0.4,0.4,80,0.00,,,0.00,WUHU216HW,2013-07-28 09:47:00,
2013-07-28 03:52:00,55.3,49.1,31.85,SW,225,0.0,0.4,80,0.00,,,0.00,WUHU216HW,2013-07-28 09:52:00,
2013-07-28 03:57:00,55.3,49.1,31.85,SW,225,0.0,0.4,80,0.00,,,0.00,WUHU216HW,2013-07-28 09:57:00,
2013-07-28 04:02:00,55.4,49.3,31.85,SW,225,0.0,0.0,80,0.00,,,0.00,WUHU216HW,2013-07-28 10:02:00,
2013-07-28 04:07:00,55.4,49.0,31.85,SW,225,0.0,0.0,79,0.00,,,0.00,WUHU216HW,2013-07-28 10:07:00,
2013-07-28 04:12:00,55.4,49.3,31.85,SW,225,0.4,0.4,80,0.00,,,0.00,WUHU216HW,2013-07-28 10:12:00,
2013-07-28 04:17:00,55.3,48.8,31.85,SW,225,0.0,0.4,79,0.00,,,0.00,WUHU216HW,2013-07-28 10:17:00,
2013-07-28 04:22:00,55.3,48.8,31.85,SW,225,0.0,0.4,79,0.00,,,0.00,WUHU216HW,2013-07-28 10:22:00,
2013-07-28 04:27:00,55.3,48.8,31.85,SW,225,0.0,0.0,79,0.00,,,0.00,WUHU216HW,2013-07-28 10:27:00,
2013-07-28 04:32:00,55.1,48.7,31.85,SW,225,0.0,0.0,79,0.00,,,0.00,WUHU216HW,2013-07-28 10:32:00,
2013-07-28 04:37:00,55.1,48.7,31.85,SW,225,0.0,0.0,79,0.00,,,0.00,WUHU216HW,2013-07-28 10:37:00,
2013-07-28 04:42:00,54.9,48.5,31.85,SW,225,0.0,0.0,79,0.00,,,0.00,WUHU216HW,2013-07-28 10:42:00,
2013-07-28 04:47:00,54.9,48.5,31.85,SW,225,0.0,0.0,79,0.00,,,0.00,WUHU216HW,2013-07-28 10:47:00,
2013-07-28 04:52:00,54.7,48.7,31.85,SW,225,0.9,0.9,80,0.00,,,0.00,WUHU216HW,2013-07-28 10:52:00,
2013-07-28 04:57:00,54.7,48.7,31.85,SW,225,0.0,0.9,80,0.00,,,0.00,WUHU216HW,2013-07-28 10:57:00,
2013-07-28 05:02:00,54.7,48.7,31.85,SW,225,0.4,0.9,80,0.00,,,0.00,WUHU216HW,2013-07-28 11:02:00,
2013-07-28 05:07:00,54.7,48.7,31.85,SW,225,0.0,0.4,80,0.00,,,0.00,WUHU216HW,2013-07-28 11:07:00,
2013-07-28 05:12:00,54.7,48.7,31.85,SW,225,0.0,0.4,80,0.00,,,0.00,WUHU216HW,2013-07-28 11:12:00,
2013-07-28 05:17:00,54.7,48.7,31.85,SW,225,0.0,0.0,80,0.00,,,0.00,WUHU216HW,2013-07-28 11:17:00,
2013-07-28 05:22:00,54.9,48.9,31.86,SW,225,0.0,0.0,80,0.00,,,0.00,WUHU216HW,2013-07-28 11:22:00,
2013-07-28 05:27:00,54.9,48.9,31.86,SW,225,0.4,0.4,80,0.00,,,0.00,WUHU216HW,2013-07-28 11:27:00,
2013-07-28 05:32:00,54.9,48.9,31.86,SW,225,0.0,0.4,80,0.00,,,0.00,WUHU216HW,2013-07-28 11:32:00,
2013-07-28 05:37:00,54.9,48.9,31.86,SW,225,0.0,0.4,80,0.00,,,0.00,WUHU216HW,2013-07-28 11:37:00,
2013-07-28 05:42:00,54.9,48.9,31.86,SW,225,0.4,0.4,80,0.00,,,0.00,WUHU216HW,2013-07-28 11:42:00,
2013-07-28 05:47:00,54.9,48.9,31.86,SW,225,0.2,0.4,80,0.00,,,0.00,WUHU216HW,2013-07-28 11:47:00,
2013-07-28 05:52:00,54.9,48.9,31.86,SW,225,0.0,0.4,80,0.00,,,0.00,WUHU216HW,2013-07-28 11:52:00,
2013-07-28 05:57:00,54.7,48.7,31.86,SW,225,0.4,0.4,80,0.00,,,0.00,WUHU216HW,2013-07-28 11:57:00,
2013-07-28 06:02:00,54.7,48.7,31.86,SW,225,0.0,0.4,80,0.00,,,0.00,WUHU216HW,2013-07-28 12:02:00,
2013-07-28 06:07:00,54.7,48.7,31.86,SW,225,0.0,0.4,80,0.00,,,0.00,WUHU216HW,2013-07-28 12:07:00,
2013-07-28 06:12:00,54.7,48.7,31.86,SW,225,0.0,0.0,80,0.00,,,0.00,WUHU216HW,2013-07-28 12:12:00,
2013-07-28 06:17:00,54.5,48.5,31.86,SW,225,0.0,0.0,80,0.00,,,0.00,WUHU216HW,2013-07-28 12:17:00,
2013-07-28 06:22:00,54.5,48.5,31.86,SW,225,0.0,0.0,80,0.00,,,0.00,WUHU216HW,2013-07-28 12:22:00,
2013-07-28 06:27:00,54.5,48.5,31.86,SW,225,0.0,0.0,80,0.00,,,0.00,WUHU216HW,2013-07-28 12:27:00,
2013-07-28 06:32:00,54.4,48.3,31.86,SW,225,0.0,0.0,80,0.00,,,0.00,WUHU216HW,2013-07-28 12:32:00,
2013-07-28 06:37:00,54.4,48.3,31.86,SW,225,0.0,0.0,80,0.00,,,0.00,WUHU216HW,2013-07-28 12:37:00,
2013-07-28 06:42:00,54.4,48.3,31.86,SW,225,0.0,0.0,80,0.00,,,0.00,WUHU216HW,2013-07-28 12:42:00,
2013-07-28 06:47:00,54.4,48.3,31.86,SW,225,0.0,0.0,80,0.00,,,0.00,WUHU216HW,2013-07-28 12:47:00,
2013-07-28 06:52:00,54.4,48.3,31.86,SW,225,0.0,0.0,80,0.00,,,0.00,WUHU216HW,2013-07-28 12:52:00,
2013-07-28 06:57:00,54.4,48.7,31.86,SW,225,0.0,0.0,81,0.00,,,0.00,WUHU216HW,2013-07-28 12:57:00,
2013-07-28 07:02:00,54.5,48.9,31.86,SW,225,0.0,0.0,81,0.00,,,0.00,WUHU216HW,2013-07-28 13:02:00,
2013-07-28 07:07:00,54.9,49.1,31.86,SW,225,0.0,0.0,81,0.00,,,0.00,WUHU216HW,2013-07-28 13:07:00,
2013-07-28 07:12:00,55.1,49.3,31.87,SW,225,0.0,0.0,81,0.00,,,0.00,WUHU216HW,2013-07-28 13:12:00,
2013-07-28 07:17:00,55.6,49.9,31.87,SW,225,0.0,0.0,81,0.00,,,0.00,WUHU216HW,2013-07-28 13:17:00,
2013-07-28 07:22:00,56.2,50.4,31.87,ENE,68,0.7,1.1,81,0.00,,,0.00,WUHU216HW,2013-07-28 13:22:00,
2013-07-28 07:27:00,56.9,50.8,31.87,NE,45,1.1,1.1,80,0.00,,,0.00,WUHU216HW,2013-07-28 13:27:00,
2013-07-28 07:32:00,57.2,50.8,31.87,ENE,68,1.1,1.6,79,0.00,,,0.00,WUHU216HW,2013-07-28 13:32:00,
2013-07-28 07:37:00,58.0,51.1,31.87,ENE,68,0.9,1.6,78,0.00,,,0.00,WUHU216HW,2013-07-28 13:37:00,
2013-07-28 07:42:00,58.1,50.9,31.87,ENE,68,1.3,1.6,77,0.00,,,0.00,WUHU216HW,2013-07-28 13:42:00,
2013-07-28 07:47:00,58.7,51.1,31.87,ENE,68,0.7,1.6,76,0.00,,,0.00,WUHU216HW,2013-07-28 13:47:00,
2013-07-28 07:52:00,59.0,51.1,31.87,East,90,1.6,1.6,75,0.00,,,0.00,WUHU216HW,2013-07-28 13:52:00,
2013-07-28 07:57:00,59.4,51.1,31.87,NE,45,1.1,1.6,74,0.00,,,0.00,WUHU216HW,2013-07-28 13:57:00,
2013-07-28 08:02:00,60.1,51.8,31.87,ENE,68,2.0,2.0,74,0.00,,,0.00,WUHU216HW,2013-07-28 14:02:00,
2013-07-28 08:07:00,60.5,51.8,31.87,ENE,68,1.1,2.0,73,0.00,,,0.00,WUHU216HW,2013-07-28 14:07:00,
2013-07-28 08:12:00,60.8,52.2,31.87,ENE,68,2.5,2.5,73,0.00,,,0.00,WUHU216HW,2013-07-28 14:12:00,
2013-07-28 08:17:00,61.0,52.0,31.87,NE,45,0.9,3.1,72,0.00,,,0.00,WUHU216HW,2013-07-28 14:17:00,
2013-07-28 08:22:00,61.4,52.3,31.87,ENE,68,0.2,3.1,72,0.00,,,0.00,WUHU216HW,2013-07-28 14:22:00,
2013-07-28 08:27:00,61.7,52.3,31.88,ENE,68,1.3,1.8,71,0.00,,,0.00,WUHU216HW,2013-07-28 14:27:00,
2013-07-28 08:32:00,61.9,52.8,31.87,ENE,68,1.6,2.5,72,0.00,,,0.00,WUHU216HW,2013-07-28 14:32:00,
2013-07-28 08:37:00,63.0,53.1,31.88,NE,45,1.8,2.5,70,0.00,,,0.00,WUHU216HW,2013-07-28 14:37:00,
2013-07-28 08:42:00,63.2,52.8,31.88,ENE,68,1.1,2.5,69,0.00,,,0.00,WUHU216HW,2013-07-28 14:42:00,
2013-07-28 08:47:00,63.0,53.1,31.88,ENE,68,2.5,2.5,70,0.00,,,0.00,WUHU216HW,2013-07-28 14:47:00,
2013-07-28 08:52:00,62.8,52.9,31.88,NE,45,2.5,2.7,70,0.00,,,0.00,WUHU216HW,2013-07-28 14:52:00,
2013-07-28 08:57:00,63.0,52.7,31.88,NE,45,1.8,3.1,69,0.00,,,0.00,WUHU216HW,2013-07-28 14:57:00,
2013-07-28 09:02:00,63.4,53.0,31.88,NNE,23,0.7,3.1,69,0.00,,,0.00,WUHU216HW,2013-07-28 15:02:00,
2013-07-28 09:07:00,63.4,53.0,31.87,ENE,68,1.1,2.5,69,0.00,,,0.00,WUHU216HW,2013-07-28 15:07:00,
2013-07-28 09:12:00,63.7,53.0,31.87,NE,45,2.7,2.7,68,0.00,,,0.00,WUHU216HW,2013-07-28 15:12:00,
2013-07-28 09:17:00,64.1,52.9,31.88,NE,45,2.5,2.9,67,0.00,,,0.00,WUHU216HW,2013-07-28 15:17:00,
2013-07-28 09:22:00,64.4,53.3,31.88,ENE,68,2.9,2.9,67,0.00,,,0.00,WUHU216HW,2013-07-28 15:22:00,
2013-07-28 09:27:00,65.0,53.3,31.87,NE,45,1.8,2.9,66,0.00,,,0.00,WUHU216HW,2013-07-28 15:27:00,
2013-07-28 09:32:00,65.2,53.1,31.88,East,90,2.9,2.9,65,0.00,,,0.00,WUHU216HW,2013-07-28 15:32:00,
2013-07-28 09:37:00,65.7,53.6,31.88,NNE,23,2.0,2.9,65,0.00,,,0.00,WUHU216HW,2013-07-28 15:37:00,
2013-07-28 09:42:00,65.9,53.7,31.88,ENE,68,2.5,2.9,65,0.00,,,0.00,WUHU216HW,2013-07-28 15:42:00,
2013-07-28 09:47:00,66.2,54.1,31.88,NE,45,2.5,3.1,65,0.00,,,0.00,WUHU216HW,2013-07-28 15:47:00,
2013-07-28 09:52:00,66.6,54.5,31.87,NE,45,1.8,3.1,65,0.00,,,0.00,WUHU216HW,2013-07-28 15:52:00,
2013-07-28 09:57:00,66.8,53.7,31.87,NE,45,3.4,3.8,63,0.00,,,0.00,WUHU216HW,2013-07-28 15:57:00,
2013-07-28 10:02:00,66.6,54.0,31.88,ENE,68,0.7,3.8,64,0.00,,,0.00,WUHU216HW,2013-07-28 16:02:00,
2013-07-28 10:07:00,67.0,53.6,31.87,SW,225,1.1,2.5,62,0.00,,,0.00,WUHU216HW,2013-07-28 16:07:00,
2013-07-28 10:12:00,67.3,53.8,31.87,WSW,248,0.4,2.0,62,0.00,,,0.00,WUHU216HW,2013-07-28 16:12:00,
2013-07-28 10:17:00,67.5,53.2,31.87,WSW,248,1.8,2.0,60,0.00,,,0.00,WUHU216HW,2013-07-28 16:17:00,
2013-07-28 10:22:00,67.7,52.4,31.87,SW,225,3.4,3.4,58,0.00,,,0.00,WUHU216HW,2013-07-28 16:22:00,
2013-07-28 10:27:00,67.9,52.5,31.87,WNW,293,0.7,3.4,58,0.00,,,0.00,WUHU216HW,2013-07-28 16:27:00,
2013-07-28 10:32:00,68.0,52.2,31.87,South,180,1.8,3.4,57,0.00,,,0.00,WUHU216HW,2013-07-28 16:32:00,
2013-07-28 10:37:00,68.0,52.2,31.87,SSW,203,0.4,2.9,57,0.00,,,0.00,WUHU216HW,2013-07-28 16:37:00,
2013-07-28 10:42:00,68.4,52.6,31.87,WNW,293,1.6,2.9,57,0.00,,,0.00,WUHU216HW,2013-07-28 16:42:00,
2013-07-28 10:47:00,68.6,52.2,31.87,WNW,293,1.8,2.7,56,0.00,,,0.00,WUHU216HW,2013-07-28 16:47:00,
2013-07-28 10:52:00,68.8,52.4,31.87,WNW,293,1.1,2.5,56,0.00,,,0.00,WUHU216HW,2013-07-28 16:52:00,
2013-07-28 10:57:00,69.3,52.4,31.87,NW,315,0.2,3.4,55,0.00,,,0.00,WUHU216HW,2013-07-28 16:57:00,
2013-07-28 11:02:00,69.5,52.6,31.87,NW,315,1.8,3.4,55,0.00,,,0.00,WUHU216HW,2013-07-28 17:02:00,
2013-07-28 11:07:00,69.7,52.3,31.87,WSW,248,3.8,3.8,54,0.00,,,0.00,WUHU216HW,2013-07-28 17:07:00,
2013-07-28 11:12:00,69.7,52.7,31.87,SSW,203,0.0,3.8,55,0.00,,,0.00,WUHU216HW,2013-07-28 17:12:00,
2013-07-28 11:17:00,70.0,52.6,31.87,WNW,293,3.4,3.8,54,0.00,,,0.00,WUHU216HW,2013-07-28 17:17:00,
2013-07-28 11:22:00,70.2,52.7,31.87,South,180,1.8,3.4,54,0.00,,,0.00,WUHU216HW,2013-07-28 17:22:00,
2013-07-28 11:27:00,70.6,53.6,31.87,WSW,248,0.4,3.4,55,0.00,,,0.00,WUHU216HW,2013-07-28 17:27:00,
2013-07-28 11:32:00,70.7,52.8,31.87,WNW,293,1.3,2.5,53,0.00,,,0.00,WUHU216HW,2013-07-28 17:32:00,
2013-07-28 11:37:00,71.1,52.6,31.86,WNW,293,3.4,3.8,52,0.00,,,0.00,WUHU216HW,2013-07-28 17:37:00,
2013-07-28 11:42:00,71.3,53.2,31.87,West,270,4.0,4.0,53,0.00,,,0.00,WUHU216HW,2013-07-28 17:42:00,
2013-07-28 11:47:00,71.5,52.4,31.87,WSW,248,4.3,4.3,51,0.00,,,0.00,WUHU216HW,2013-07-28 17:47:00,
2013-07-28 11:52:00,71.8,52.7,31.87,West,270,0.7,4.3,51,0.00,,,0.00,WUHU216HW,2013-07-28 17:52:00,
2013-07-28 11:57:00,72.0,52.4,31.87,WNW,293,4.7,4.7,50,0.00,,,0.00,WUHU216HW,2013-07-28 17:57:00,
2013-07-28 12:02:00,72.4,52.1,31.87,SSE,158,1.1,4.7,49,0.00,,,0.00,WUHU216HW,2013-07-28 18:02:00,
2013-07-28 12:07:00,72.7,52.4,31.87,West,270,1.1,4.7,49,0.00,,,0.00,WUHU216HW,2013-07-28 18:07:00,
2013-07-28 12:12:00,72.9,51.9,31.86,WNW,293,1.8,3.8,48,0.00,,,0.00,WUHU216HW,2013-07-28 18:12:00,
2013-07-28 12:17:00,73.1,52.1,31.86,West,270,3.4,3.4,48,0.00,,,0.00,WUHU216HW,2013-07-28 18:17:00,
2013-07-28 12:22:00,73.1,52.1,31.86,NNW,338,0.7,3.6,48,0.00,,,0.00,WUHU216HW,2013-07-28 18:22:00,
2013-07-28 12:27:00,73.3,51.7,31.86,South,180,1.3,5.4,47,0.00,,,0.00,WUHU216HW,2013-07-28 18:27:00,
2013-07-28 12:32:00,73.4,51.8,31.86,West,270,0.9,6.3,47,0.00,,,0.00,WUHU216HW,2013-07-28 18:32:00,
2013-07-28 12:37:00,73.4,51.3,31.85,NW,315,1.1,6.3,46,0.00,,,0.00,WUHU216HW,2013-07-28 18:37:00,
2013-07-28 12:42:00,73.6,50.9,31.86,NNW,338,0.9,3.6,45,0.00,,,0.00,WUHU216HW,2013-07-28 18:42:00,
2013-07-28 12:47:00,73.8,52.2,31.86,NNW,338,1.3,3.6,47,0.00,,,0.00,WUHU216HW,2013-07-28 18:47:00,
2013-07-28 12:52:00,74.2,51.9,31.86,WNW,293,2.5,4.7,46,0.00,,,0.00,WUHU216HW,2013-07-28 18:52:00,
2013-07-28 12:57:00,74.2,51.4,31.86,WSW,248,2.7,5.4,45,0.00,,,0.00,WUHU216HW,2013-07-28 18:57:00,
2013-07-28 13:02:00,74.2,49.6,31.86,WSW,248,6.3,6.3,42,0.00,,,0.00,WUHU216HW,2013-07-28 19:02:00,
2013-07-28 13:07:00,74.3,51.0,31.86,West,270,1.8,6.3,44,0.00,,,0.00,WUHU216HW,2013-07-28 19:07:00,
2013-07-28 13:12:00,74.5,49.9,31.86,West,270,2.7,6.3,42,0.00,,,0.00,WUHU216HW,2013-07-28 19:12:00,
2013-07-28 13:17:00,75.2,50.6,31.85,West,270,3.1,5.4,42,0.00,,,0.00,WUHU216HW,2013-07-28 19:17:00,
2013-07-28 13:22:00,75.6,50.9,31.85,NNW,338,2.0,3.6,42,0.00,,,0.00,WUHU216HW,2013-07-28 19:22:00,
2013-07-28 13:27:00,76.0,51.9,31.85,SW,225,0.9,3.6,43,0.00,,,0.00,WUHU216HW,2013-07-28 19:27:00,
2013-07-28 13:32:00,76.1,51.4,31.85,SW,225,2.7,2.7,42,0.00,,,0.00,WUHU216HW,2013-07-28 19:32:00,
2013-07-28 13:37:00,76.0,50.0,31.85,SSW,203,1.1,4.0,40,0.00,,,0.00,WUHU216HW,2013-07-28 19:37:00,
2013-07-28 13:42:00,76.0,50.6,31.85,WNW,293,2.7,4.0,41,0.00,,,0.00,WUHU216HW,2013-07-28 19:42:00,
2013-07-28 13:47:00,76.0,51.9,31.85,SW,225,1.3,3.8,43,0.00,,,0.00,WUHU216HW,2013-07-28 19:47:00,
2013-07-28 13:52:00,75.8,51.0,31.85,West,270,3.4,3.8,42,0.00,,,0.00,WUHU216HW,2013-07-28 19:52:00,
2013-07-28 13:57:00,75.2,51.1,31.85,WSW,248,3.4,3.4,43,0.00,,,0.00,WUHU216HW,2013-07-28 19:57:00,
2013-07-28 14:02:00,74.0,51.8,31.85,WNW,293,0.9,4.0,46,0.00,,,0.00,WUHU216HW,2013-07-28 20:02:00,
2013-07-28 14:07:00,73.3,51.7,31.85,WSW,248,0.7,4.7,47,0.00,,,0.00,WUHU216HW,2013-07-28 20:07:00,
2013-07-28 14:12:00,72.4,50.9,31.85,NW,315,0.9,4.7,47,0.00,,,0.00,WUHU216HW,2013-07-28 20:12:00,
2013-07-28 14:17:00,72.4,51.5,31.84,WNW,293,2.5,4.0,48,0.00,,,0.00,WUHU216HW,2013-07-28 20:17:00,
2013-07-28 14:22:00,71.5,50.7,31.84,WNW,293,1.8,3.4,48,0.00,,,0.00,WUHU216HW,2013-07-28 20:22:00,
2013-07-28 14:27:00,71.3,50.5,31.84,SW,225,1.1,3.4,48,0.00,,,0.00,WUHU216HW,2013-07-28 20:27:00,
2013-07-28 14:32:00,71.1,50.9,31.84,WNW,293,1.3,1.8,49,0.00,,,0.00,WUHU216HW,2013-07-28 20:32:00,
2013-07-28 14:37:00,70.9,51.4,31.84,WNW,293,1.8,2.0,50,0.00,,,0.00,WUHU216HW,2013-07-28 20:37:00,
2013-07-28 14:42:00,70.6,51.0,31.84,SW,225,1.6,3.8,50,0.00,,,0.00,WUHU216HW,2013-07-28 20:42:00,
2013-07-28 14:47:00,70.2,51.2,31.84,WNW,293,1.1,3.8,51,0.00,,,0.00,WUHU216HW,2013-07-28 20:47:00,
2013-07-28 14:52:00,69.8,51.0,31.84,WNW,293,1.1,5.4,51,0.00,,,0.00,WUHU216HW,2013-07-28 20:52:00,
2013-07-28 14:57:00,69.7,50.8,31.84,WSW,248,4.5,5.4,51,0.00,,,0.00,WUHU216HW,2013-07-28 20:57:00,
2013-07-28 15:02:00,69.5,51.1,31.85,West,270,0.2,4.5,52,0.00,,,0.00,WUHU216HW,2013-07-28 21:02:00,
2013-07-28 15:07:00,69.3,51.0,31.84,West,270,2.5,4.5,52,0.00,,,0.00,WUHU216HW,2013-07-28 21:07:00,
2013-07-28 15:12:00,69.3,51.0,31.84,WSW,248,3.6,3.6,52,0.00,,,0.00,WUHU216HW,2013-07-28 21:12:00,
2013-07-28 15:17:00,69.1,49.8,31.84,WSW,248,3.1,4.0,50,0.00,,,0.00,WUHU216HW,2013-07-28 21:17:00,
2013-07-28 15:22:00,69.1,49.8,31.84,West,270,1.3,4.0,50,0.00,,,0.00,WUHU216HW,2013-07-28 21:22:00,
2013-07-28 15:27:00,68.9,49.6,31.84,WNW,293,1.6,3.4,50,0.00,,,0.00,WUHU216HW,2013-07-28 21:27:00,
2013-07-28 15:32:00,68.9,49.6,31.84,South,180,2.5,2.9,50,0.00,,,0.00,WUHU216HW,2013-07-28 21:32:00,
2013-07-28 15:37:00,69.3,49.3,31.84,SSW,203,1.8,3.4,49,0.00,,,0.00,WUHU216HW,2013-07-28 21:37:00,
2013-07-28 15:42:00,70.0,47.6,31.83,WSW,248,4.3,4.9,45,0.00,,,0.00,WUHU216HW,2013-07-28 21:42:00,
2013-07-28 15:47:00,70.6,49.2,31.83,WNW,293,2.0,4.9,47,0.00,,,0.00,WUHU216HW,2013-07-28 21:47:00,
2013-07-28 15:52:00,71.3,50.0,31.83,WNW,293,0.2,4.3,47,0.00,,,0.00,WUHU216HW,2013-07-28 21:52:00,
2013-07-28 15:57:00,71.6,50.2,31.83,SSW,203,0.4,4.0,47,0.00,,,0.00,WUHU216HW,2013-07-28 21:57:00,
2013-07-28 16:04:00,71.8,50.4,31.83,East,90,0.2,4.0,47,0.00,,,0.00,WUHU216HW,2013-07-28 22:04:00,
2013-07-28 16:09:00,72.0,50.0,31.83,ENE,68,1.1,3.4,46,0.00,,,0.00,WUHU216HW,2013-07-28 22:09:00,
2013-07-28 16:14:00,71.8,50.4,31.83,SW,225,1.6,3.4,47,0.00,,,0.00,WUHU216HW,2013-07-28 22:14:00,
2013-07-28 16:19:00,71.8,50.4,31.82,West,270,3.4,3.4,47,0.00,,,0.00,WUHU216HW,2013-07-28 22:19:00,
2013-07-28 16:25:00,71.6,50.2,31.82,West,270,1.8,3.4,47,0.00,,,0.00,WUHU216HW,2013-07-28 22:25:00,
2013-07-28 16:30:00,71.8,50.4,31.82,WSW,248,3.1,3.4,47,0.00,,,0.00,WUHU216HW,2013-07-28 22:30:00,
2013-07-28 16:35:00,71.6,50.9,31.82,SSE,158,0.7,3.4,48,0.00,,,0.00,WUHU216HW,2013-07-28 22:35:00,
2013-07-28 16:40:00,71.3,50.5,31.82,WSW,248,0.4,3.1,48,0.00,,,0.00,WUHU216HW,2013-07-28 22:40:00,
2013-07-28 16:45:00,71.3,50.5,31.81,West,270,1.6,2.9,48,0.00,,,0.00,WUHU216HW,2013-07-28 22:45:00,
2013-07-28 16:50:00,71.1,50.3,31.82,South,180,1.6,1.8,48,0.00,,,0.00,WUHU216HW,2013-07-28 22:50:00,
2013-07-28 16:55:00,70.9,50.2,31.82,WSW,248,1.6,1.8,48,0.00,,,0.00,WUHU216HW,2013-07-28 22:55:00,
2013-07-28 17:00:00,70.9,50.2,31.82,WSW,248,0.4,1.8,48,0.00,,,0.00,WUHU216HW,2013-07-28 23:00:00,
2013-07-28 17:05:00,70.9,50.8,31.82,West,270,0.2,2.9,49,0.00,,,0.00,WUHU216HW,2013-07-28 23:05:00,
2013-07-28 17:10:00,71.1,50.9,31.82,SW,225,0.2,2.9,49,0.00,,,0.00,WUHU216HW,2013-07-28 23:10:00,
2013-07-28 17:15:00,71.5,50.0,31.82,West,270,0.9,2.7,47,0.00,,,0.00,WUHU216HW,2013-07-28 23:15:00,
2013-07-28 17:20:00,71.5,50.0,31.82,West,270,0.7,2.0,47,0.00,,,0.00,WUHU216HW,2013-07-28 23:20:00,
2013-07-28 17:25:00,71.6,50.2,31.83,WNW,293,0.0,1.8,47,0.00,,,0.00,WUHU216HW,2013-07-28 23:25:00,
2013-07-28 17:30:00,71.5,49.5,31.83,SE,135,0.2,0.9,46,0.00,,,0.00,WUHU216HW,2013-07-28 23:30:00,
2013-07-28 17:35:00,71.5,50.0,31.83,West,270,0.2,1.8,47,0.00,,,0.00,WUHU216HW,2013-07-28 23:35:00,
2013-07-28 17:40:00,71.5,49.5,31.83,NW,315,0.2,1.8,46,0.00,,,0.00,WUHU216HW,2013-07-28 23:40:00,
2013-07-28 17:45:00,71.3,49.3,31.83,SSW,203,0.7,1.6,46,0.00,,,0.00,WUHU216HW,2013-07-28 23:45:00,
2013-07-28 17:50:00,71.3,49.3,31.83,WSW,248,0.0,1.6,46,0.00,,,0.00,WUHU216HW,2013-07-28 23:50:00,
2013-07-28 17:55:00,71.1,49.1,31.83,West,270,0.0,0.7,46,0.00,,,0.00,WUHU216HW,2013-07-28 23:55:00,
2013-07-28 18:00:00,71.3,49.3,31.83,West,270,0.0,1.1,46,0.00,,,0.00,WUHU216HW,2013-07-29 00:00:00,
2013-07-28 18:05:00,71.3,49.3,31.83,NNW,338,1.1,1.1,46,0.00,,,0.00,WUHU216HW,2013-07-29 00:05:00,
2013-07-28 18:10:00,71.3,49.3,31.83,WNW,293,1.1,1.1,46,0.00,,,0.00,WUHU216HW,2013-07-29 00:10:00,
2013-07-28 18:16:00,71.3,48.7,31.83,West,270,0.0,1.1,45,0.00,,,0.00,WUHU216HW,2013-07-29 00:16:00,
2013-07-28 18:21:00,71.5,48.9,31.83,WSW,248,0.0,1.1,45,0.00,,,0.00,WUHU216HW,2013-07-29 00:21:00,
2013-07-28 18:26:00,71.5,48.9,31.83,WSW,248,0.0,1.1,45,0.00,,,0.00,WUHU216HW,2013-07-29 00:26:00,
2013-07-28 18:31:00,71.6,49.7,31.83,NNE,23,0.4,1.1,46,0.00,,,0.00,WUHU216HW,2013-07-29 00:31:00,
2013-07-28 18:36:00,71.6,49.7,31.83,NNW,338,0.0,1.1,46,0.00,,,0.00,WUHU216HW,2013-07-29 00:36:00,
2013-07-28 18:41:00,71.6,49.7,31.83,NW,315,0.4,1.1,46,0.00,,,0.00,WUHU216HW,2013-07-29 00:41:00,
2013-07-28 18:46:00,71.5,49.5,31.83,NNE,23,0.0,1.1,46,0.00,,,0.00,WUHU216HW,2013-07-29 00:46:00,
2013-07-28 18:51:00,71.3,49.3,31.83,NNE,23,0.4,1.1,46,0.00,,,0.00,WUHU216HW,2013-07-29 00:51:00,
2013-07-28 18:56:00,70.9,49.6,31.83,NNE,23,0.4,0.7,47,0.00,,,0.00,WUHU216HW,2013-07-29 00:56:00,
2013-07-28 19:01:00,70.9,49.6,31.83,NNE,23,0.2,0.9,47,0.00,,,0.00,WUHU216HW,2013-07-29 01:01:00,
2013-07-28 19:06:00,70.2,47.2,31.84,ENE,68,2.5,5.4,44,0.00,,,0.00,WUHU216HW,2013-07-29 01:06:00,
2013-07-28 19:11:00,69.8,46.3,31.84,ENE,68,4.5,5.4,43,0.00,,,0.00,WUHU216HW,2013-07-29 01:11:00,
2013-07-28 19:16:00,68.8,45.9,31.84,NE,45,0.0,4.7,44,0.00,,,0.00,WUHU216HW,2013-07-29 01:16:00,
2013-07-28 19:21:00,68.8,45.3,31.84,East,90,0.2,4.5,43,0.00,,,0.00,WUHU216HW,2013-07-29 01:21:00,
2013-07-28 19:26:00,68.2,45.4,31.84,SE,135,0.2,1.6,44,0.00,,,0.00,WUHU216HW,2013-07-29 01:26:00,
2013-07-28 19:31:00,68.0,45.2,31.83,ESE,113,0.0,0.4,44,0.00,,,0.00,WUHU216HW,2013-07-29 01:31:00,
2013-07-28 19:36:00,67.5,45.4,31.84,ENE,68,1.1,1.1,45,0.00,,,0.00,WUHU216HW,2013-07-29 01:36:00,
2013-07-28 19:41:00,67.1,45.0,31.84,South,180,0.2,1.3,45,0.00,,,0.00,WUHU216HW,2013-07-29 01:41:00,
2013-07-28 19:47:00,67.0,44.8,31.84,SSW,203,0.0,1.8,45,0.00,,,0.00,WUHU216HW,2013-07-29 01:47:00,
2013-07-28 19:52:00,66.4,44.9,31.84,SSE,158,0.0,1.8,46,0.00,,,0.00,WUHU216HW,2013-07-29 01:52:00,
2013-07-28 19:57:00,65.9,44.5,31.84,SSE,158,0.4,1.1,46,0.00,,,0.00,WUHU216HW,2013-07-29 01:57:00,
2013-07-28 20:02:00,65.9,44.5,31.84,South,180,1.1,2.5,46,0.00,,,0.00,WUHU216HW,2013-07-29 02:02:00,
2013-07-28 20:07:00,65.5,44.6,31.85,East,90,0.4,2.5,47,0.00,,,0.00,WUHU216HW,2013-07-29 02:07:00,
2013-07-28 20:12:00,65.5,44.1,31.85,South,180,0.0,1.8,46,0.00,,,0.00,WUHU216HW,2013-07-29 02:12:00,
2013-07-28 20:17:00,65.2,44.4,31.84,NNE,23,0.9,1.1,47,0.00,,,0.00,WUHU216HW,2013-07-29 02:17:00,
2013-07-28 20:22:00,65.0,44.2,31.85,ENE,68,0.4,1.8,47,0.00,,,0.00,WUHU216HW,2013-07-29 02:22:00,
2013-07-28 20:27:00,64.8,44.0,31.85,ENE,68,0.9,1.8,47,0.00,,,0.00,WUHU216HW,2013-07-29 02:27:00,
2013-07-28 20:32:00,64.4,43.7,31.86,NNE,23,0.2,0.9,47,0.00,,,0.00,WUHU216HW,2013-07-29 02:32:00,
2013-07-28 20:38:00,64.4,44.2,31.88,NW,315,3.1,3.1,48,0.00,,,0.00,WUHU216HW,2013-07-29 02:38:00,
2013-07-28 20:43:00,63.5,47.0,31.88,WSW,248,5.6,7.2,55,0.00,,,0.00,WUHU216HW,2013-07-29 02:43:00,
2013-07-28 20:48:00,61.4,48.3,31.89,NW,315,1.8,7.6,62,0.07,,,0.07,WUHU216HW,2013-07-29 02:48:00,
2013-07-28 20:53:00,59.4,47.6,31.90,SSW,203,2.5,7.6,65,0.09,,,0.09,WUHU216HW,2013-07-29 02:53:00,
2013-07-28 20:58:00,58.3,48.2,31.89,SW,225,2.5,4.0,69,0.09,,,0.09,WUHU216HW,2013-07-29 02:58:00,
2013-07-28 21:03:00,57.1,48.4,31.88,SW,225,2.5,3.6,73,0.11,,,0.11,WUHU216HW,2013-07-29 03:03:00,
2013-07-28 21:08:00,56.7,48.1,31.88,SSW,203,2.0,3.6,73,0.11,,,0.11,WUHU216HW,2013-07-29 03:08:00,
2013-07-28 21:13:00,56.2,49.3,31.88,SSW,203,1.8,4.0,78,0.11,,,0.11,WUHU216HW,2013-07-29 03:13:00,
2013-07-28 21:18:00,56.2,50.0,31.88,SW,225,6.9,6.9,80,0.11,,,0.11,WUHU216HW,2013-07-29 03:18:00,
2013-07-28 21:23:00,56.2,49.7,31.89,SSW,203,2.5,6.9,79,0.11,,,0.11,WUHU216HW,2013-07-29 03:23:00,
2013-07-28 21:28:00,56.0,49.5,31.90,WSW,248,1.1,6.9,79,0.11,,,0.11,WUHU216HW,2013-07-29 03:28:00,
2013-07-28 21:34:00,56.0,49.1,31.90,West,270,2.7,3.6,78,0.11,,,0.11,WUHU216HW,2013-07-29 03:34:00,
2013-07-28 21:39:00,55.8,48.6,31.90,West,270,0.4,3.6,77,0.11,,,0.11,WUHU216HW,2013-07-29 03:39:00,
2013-07-28 21:44:00,55.8,48.6,31.90,SW,225,1.1,1.8,77,0.11,,,0.11,WUHU216HW,2013-07-29 03:44:00,
2013-07-28 21:49:00,55.8,48.6,31.89,SW,225,1.8,1.8,77,0.05,,,0.13,WUHU216HW,2013-07-29 03:49:00,
2013-07-28 21:54:00,55.6,49.1,31.88,SSW,203,2.5,2.5,79,0.04,,,0.13,WUHU216HW,2013-07-29 03:54:00,
2013-07-28 21:59:00,55.4,49.3,31.88,SSW,203,2.5,2.5,80,0.04,,,0.13,WUHU216HW,2013-07-29 03:59:00,
2013-07-28 22:01:00,55.4,49.0,31.87,SSW,203,3.4,3.4,79,0.02,,,0.13,WUHU216HW,2013-07-29 04:01:00,
2013-07-28 22:06:00,55.1,48.3,31.87,SW,225,2.5,3.4,78,0.02,,,0.13,WUHU216HW,2013-07-29 04:06:00,
2013-07-28 22:11:00,55.6,47.4,31.86,SW,225,2.5,3.4,74,0.02,,,0.13,WUHU216HW,2013-07-29 04:11:00,
2013-07-28 22:16:00,56.2,47.3,31.85,SSW,203,2.2,5.6,72,0.02,,,0.13,WUHU216HW,2013-07-29 04:16:00,
2013-07-28 22:21:00,56.3,46.3,31.85,SSW,203,3.4,5.6,69,0.02,,,0.13,WUHU216HW,2013-07-29 04:21:00,
2013-07-28 22:26:00,56.9,46.5,31.85,SSW,203,3.4,5.4,68,0.02,,,0.13,WUHU216HW,2013-07-29 04:26:00,
2013-07-28 22:31:00,57.1,45.4,31.85,SW,225,3.6,5.4,65,0.02,,,0.13,WUHU216HW,2013-07-29 04:31:00,
2013-07-28 22:36:00,57.4,47.4,31.85,East,90,0.4,4.7,69,0.02,,,0.13,WUHU216HW,2013-07-29 04:36:00,
2013-07-28 22:41:00,57.2,47.2,31.85,NNE,23,0.7,3.6,69,0.02,,,0.13,WUHU216HW,2013-07-29 04:41:00,
2013-07-28 22:46:00,56.9,46.8,31.85,SSW,203,1.8,1.8,69,0.00,,,0.13,WUHU216HW,2013-07-29 04:46:00,
2013-07-28 22:51:00,56.7,48.1,31.85,WSW,248,1.3,1.8,73,0.00,,,0.13,WUHU216HW,2013-07-29 04:51:00,
2013-07-28 22:56:00,56.0,48.5,31.85,West,270,1.8,1.8,76,0.00,,,0.13,WUHU216HW,2013-07-29 04:56:00,
2013-07-28 23:01:00,55.6,48.2,31.85,WSW,248,1.1,2.2,76,0.00,,,0.13,WUHU216HW,2013-07-29 05:01:00,
2013-07-28 23:06:00,55.3,48.2,31.85,WSW,248,2.2,2.5,77,0.00,,,0.13,WUHU216HW,2013-07-29 05:06:00,
2013-07-28 23:11:00,55.1,48.0,31.85,West,270,1.8,2.7,77,0.00,,,0.13,WUHU216HW,2013-07-29 05:11:00,
2013-07-28 23:16:00,55.1,48.0,31.86,SW,225,0.7,2.7,77,0.00,,,0.13,WUHU216HW,2013-07-29 05:16:00,
2013-07-28 23:21:00,54.9,47.4,31.86,SE,135,0.4,2.2,76,0.00,,,0.13,WUHU216HW,2013-07-29 05:21:00,
2013-07-28 23:26:00,54.9,47.4,31.86,WSW,248,0.9,1.3,76,0.00,,,0.13,WUHU216HW,2013-07-29 05:26:00,
2013-07-28 23:31:00,54.9,47.8,31.86,SW,225,1.8,2.2,77,0.00,,,0.13,WUHU216HW,2013-07-29 05:31:00,
2013-07-28 23:36:00,54.7,47.3,31.86,SW,225,0.7,2.5,76,0.00,,,0.13,WUHU216HW,2013-07-29 05:36:00,
2013-07-28 23:41:00,54.4,47.3,31.86,WSW,248,1.3,2.5,77,0.00,,,0.13,WUHU216HW,2013-07-29 05:41:00,
2013-07-28 23:46:00,54.2,46.8,31.86,SSW,203,2.0,2.5,76,0.00,,,0.13,WUHU216HW,2013-07-29 05:46:00,
2013-07-28 23:51:00,54.4,47.0,31.86,SW,225,1.6,2.2,76,0.00,,,0.13,WUHU216HW,2013-07-29 05:51:00,
2013-07-28 23:56:00,54.4,46.6,31.85,WSW,248,0.9,1.8,75,0.00,,,0.13,WUHU216HW,2013-07-29 05:56:00,